Location: Narrabri
(30.3170°S, 149.7830°E)
Time: 18:44:45
(UTC+10:00)

Tiangong 2 - Visible Passes

Search period start: 23 May 2017 00:00
Search period end: 02 June 2017 00:00
Orbit: 380 x 389 km, 42.8° (Epoch: 22 May)

Date Brightness Start Highest point End Pass type
(mag) Time Alt. Az. Time Alt. Az. Time Alt. Az.
25 May 4.1 06:14:17 10° N 06:16:33 18° NE 06:18:49 10° E visible
27 May 2.5 05:50:56 10° NNW 05:53:54 39° NE 05:56:55 10° ESE visible
28 May 3.7 04:53:27 16° NNE 04:54:26 18° NE 04:56:41 10° E visible
29 May 1.0 05:30:05 34° NW 05:31:19 90° E 05:34:31 10° ESE visible
30 May 4.2 04:34:06 14° ESE 04:34:06 14° ESE 04:34:44 10° ESE visible
30 May 2.4 06:06:22 13° WSW 06:08:32 24° SSW 06:11:14 10° SSE visible
31 May 2.7 05:10:08 26° SSE 05:10:08 26° SSE 05:11:51 10° SE visible
01 Jun 3.0 05:45:56 16° SSW 05:46:10 16° SSW 05:48:17 10° SSE visible
